Regional Weather Roundup
Issued by NWS Binghamton, NY

Home | Current Version | Previous Version | Text Only | Print | Product List | Glossary On
Versions: 1 2 3 4 5 6 7 8 9 10 11 12 13 14 15 16 17 18 19 20 21 22 23 24 25 26 27 28 29 30 31 32 33 34 35 36 37 38 39 40 41 42 43 44 45 46 47 48 49 50
504
ASUS41 KBGM 201510
RWRBGM

REGIONAL WEATHER ROUNDUP
NATIONAL WEATHER SERVICE BINGHAMTON NY
1000 AM EST SUN JAN 20 2019

Note: "fair" indicates few or no clouds below 12,000 feet with no
significant weather and/or obstructions to visibility.

* = Station(s) that does not report precipitation, such as rain,
snow, etc, also no thunder or fog.

NYZ009-015>018-022>025-036-037-044>046-055>057-062-201600
...Central New York...

CITY           SKY/WX    TMP DP  RH WIND       PRES   REMARKS
Binghamton     FOG       11   8  88 NW16G23   29.46R VSB 1/2 WCI  -6
Cortland       LGT SNOW   9   3  78 NW9G21    29.55R WCI  -5
Dansville      LGT SNOW   9   2  73 NW21      29.75R WCI -11
Elmira         LGT SNOW  12   2  64 NW12G23   29.64R WCI  -2
Ithaca         LGT SNOW   8   4  83 NW17G29   29.60R VSB 3/4 WCI -10
Monticello     LGT SNOW  32  30  93 NW7       29.32S FOG     WCI  26
Penn Yan       CLOUDY     8   3  80 NW17G23   29.66S HAZE    WCI -10
Rome           SNOW       5   2  87 N13       29.59R VSB 1/2 WCI -12
Syracuse       SNOW       2  -2  83 W18       29.65R VSB 1/2 WCI -19
$$

PAZ038>040-043-044-047-048-072-201600
...Northeast Pennsylvania...

CITY           SKY/WX    TMP DP  RH WIND       PRES   REMARKS
Hazleton       LGT SNOW N/A N/A N/A NW16G25   29.38R
Scranton       SNOW      25  22  88 N9        29.42R VSB 1/2 WCI  15
$$
&&
KEY
WCI = Wind Chill Index
VSB = Visibility
HX  = Heat Index
$$




USA.gov is the U.S. government's official web portal to all federal, state and local government web resources and services.